Volver al catálogo

STARLINK-38096

ActivoComunicacionesSSO
NORAD 100119·PAYLOAD·🇺🇸 United States

Lanzado Jul 21, 2026 desde Vandenberg Space Force Base

Loading…

Próximos Pases (próximas 24 horas)

TLE

ActualizadoSource: Space-Track

Época: Sep 14, 2026, 19:05 UTC

1 A0119U 26166U   26257.79560019  .00001000  00000-0  75764-5 0  9996
2 A0119  97.2841 275.8351 0000993 100.4636 259.6741 15.75182359  8701

Sigue STARLINK-38096 en tiempo real con AllMySat

Download on the App Store